RYR12Y LEPA-LIMJ

Flight info

Callsign RYR12Y
Flight time 1h 14m
Altitude 34000
Route ISTER DCT NIVDA DCT OMEDA DCT RAPUR/N0460F300 DCT TORTU DCT ERTEV DCT OLETI DCT UNITA
Aircraft B738/M-SDE2E3FGHIRWXY/LB1

Departure

Time 2026-04-21 21:32
Airport Palma de Mallorca Airport (LEPA)

Arrival

Time 2026-04-21 22:46
Airport Genoa Cristoforo Colombo Airport (LIMJ)
Time Latitude Longitude Altitude Speed Heading
2026-04-21 21:03 39.54697 2.73404 29 ft 0 kts 238°
2026-04-21 21:19 39.54698 2.73406 2 ft 3 kts 238°
2026-04-21 21:19 39.54713 2.73433 29 ft 4 kts 220°
2026-04-21 21:19 39.54736 2.73451 29 ft 4 kts 190°
2026-04-21 21:20 39.54759 2.73448 29 ft 3 kts 150°
2026-04-21 21:20 39.54761 2.73447 29 ft 0 kts 148°
2026-04-21 21:26 39.54754 2.73453 29 ft 3 kts 148°
2026-04-21 21:26 39.54717 2.73482 29 ft 9 kts 148°
2026-04-21 21:26 39.54646 2.73539 29 ft 14 kts 144°
2026-04-21 21:26 39.54658 2.73660 29 ft 17 kts 64°
2026-04-21 21:27 39.54720 2.73797 29 ft 19 kts 58°
2026-04-21 21:27 39.54793 2.73950 29 ft 21 kts 59°
2026-04-21 21:27 39.54906 2.73960 29 ft 18 kts 342°
2026-04-21 21:27 39.54981 2.74006 29 ft 12 kts 343°
2026-04-21 21:28 39.55050 2.73952 29 ft 12 kts 329°
2026-04-21 21:28 39.55123 2.73895 29 ft 13 kts 329°
2026-04-21 21:28 39.55297 2.73758 29 ft 16 kts 328°
2026-04-21 21:29 39.55398 2.73677 29 ft 18 kts 328°
2026-04-21 21:29 39.55509 2.73590 29 ft 19 kts 329°
2026-04-21 21:29 39.55629 2.73505 29 ft 20 kts 351°
2026-04-21 21:29 39.55717 2.73628 29 ft 19 kts 58°
2026-04-21 21:30 39.55786 2.73775 29 ft 19 kts 58°
2026-04-21 21:30 39.55853 2.73917 29 ft 18 kts 58°
2026-04-21 21:30 39.55918 2.74054 29 ft 17 kts 58°
2026-04-21 21:30 39.55980 2.74185 29 ft 17 kts 56°
2026-04-21 21:31 39.56067 2.74278 29 ft 16 kts 33°
2026-04-21 21:31 39.56160 2.74357 29 ft 16 kts 30°
2026-04-21 21:31 39.56241 2.74312 29 ft 15 kts 277°
2026-04-21 21:31 39.56195 2.74193 29 ft 17 kts 239°
2026-04-21 21:32 39.55992 2.73763 29 ft 97 kts 238°
2026-04-21 21:32 39.55509 2.72745 55 ft 162 kts 238°
2026-04-21 21:32 39.54910 2.71468 900 ft 164 kts 238°
2026-04-21 21:32 39.54293 2.70173 1595 ft 182 kts 236°
2026-04-21 21:33 39.53559 2.68641 1949 ft 212 kts 236°
2026-04-21 21:33 39.52782 2.66994 2670 ft 215 kts 236°
2026-04-21 21:33 39.51980 2.65322 3363 ft 220 kts 236°
2026-04-21 21:33 39.51166 2.63638 4130 ft 222 kts 236°
2026-04-21 21:34 39.50343 2.61938 4757 ft 223 kts 236°
2026-04-21 21:34 39.49243 2.60471 5133 ft 241 kts 210°
2026-04-21 21:34 39.47709 2.59382 5498 ft 265 kts 209°
2026-04-21 21:34 39.46074 2.58179 6269 ft 273 kts 210°
2026-04-21 21:35 39.44423 2.56952 7143 ft 275 kts 210°
2026-04-21 21:35 39.42605 2.56155 7991 ft 281 kts 182°
2026-04-21 21:35 39.40714 2.56777 8879 ft 287 kts 149°
2026-04-21 21:35 39.39245 2.58554 9747 ft 292 kts 132°
2026-04-21 21:36 39.37858 2.60534 10378 ft 305 kts 134°
2026-04-21 21:36 39.36332 2.62564 10559 ft 331 kts 136°
2026-04-21 21:36 39.34640 2.64751 10735 ft 356 kts 136°
2026-04-21 21:36 39.32815 2.67052 11084 ft 373 kts 137°
2026-04-21 21:37 39.30921 2.69402 11671 ft 381 kts 137°
2026-04-21 21:37 39.28987 2.71788 12371 ft 386 kts 138°
2026-04-21 21:37 39.27208 2.74413 13065 ft 394 kts 121°
2026-04-21 21:37 39.26238 2.77748 13813 ft 400 kts 102°
2026-04-21 21:38 39.25976 2.81338 14497 ft 405 kts 90°
2026-04-21 21:38 39.25942 2.84993 15224 ft 409 kts 89°
2026-04-21 21:38 39.26307 2.88592 15899 ft 412 kts 70°
2026-04-21 21:38 39.27548 2.91919 16677 ft 412 kts 58°
2026-04-21 21:39 39.29008 2.95126 17394 ft 417 kts 57°
2026-04-21 21:39 39.30509 2.98367 18054 ft 422 kts 57°
2026-04-21 21:39 39.32004 3.01615 18665 ft 427 kts 58°
2026-04-21 21:39 39.33517 3.04947 19287 ft 431 kts 58°
2026-04-21 21:40 39.35025 3.08306 19948 ft 433 kts 58°
2026-04-21 21:40 39.36535 3.11692 20574 ft 436 kts 58°
2026-04-21 21:40 39.38052 3.15108 21139 ft 440 kts 58°
2026-04-21 21:40 39.39587 3.18569 21693 ft 445 kts 58°
2026-04-21 21:41 39.41112 3.22007 22244 ft 448 kts 58°
2026-04-21 21:41 39.42668 3.25517 22793 ft 452 kts 58°
2026-04-21 21:41 39.44261 3.29057 23329 ft 455 kts 57°
2026-04-21 21:41 39.45886 3.32588 23800 ft 459 kts 57°
2026-04-21 21:42 39.47534 3.36145 24250 ft 461 kts 57°
2026-04-21 21:42 39.49191 3.39721 24703 ft 464 kts 57°
2026-04-21 21:42 39.50857 3.43324 25145 ft 467 kts 57°
2026-04-21 21:42 39.52528 3.46953 25572 ft 470 kts 57°
2026-04-21 21:43 39.54203 3.50601 26020 ft 472 kts 57°
2026-04-21 21:43 39.55863 3.54225 26450 ft 474 kts 57°
2026-04-21 21:43 39.57549 3.57914 26837 ft 477 kts 57°
2026-04-21 21:43 39.59246 3.61631 27208 ft 480 kts 57°
2026-04-21 21:44 39.60956 3.65380 27583 ft 483 kts 57°
2026-04-21 21:44 39.62653 3.69106 27955 ft 485 kts 57°
2026-04-21 21:44 39.64373 3.72886 28318 ft 487 kts 57°
2026-04-21 21:44 39.66100 3.76687 28688 ft 489 kts 57°
2026-04-21 21:45 39.67829 3.80499 29186 ft 489 kts 57°
2026-04-21 21:45 39.69553 3.84304 29732 ft 487 kts 57°
2026-04-21 21:45 39.71268 3.88093 30219 ft 486 kts 57°
2026-04-21 21:45 39.72959 3.91832 30617 ft 486 kts 57°
2026-04-21 21:46 39.74670 3.95620 31032 ft 485 kts 57°
2026-04-21 21:46 39.76377 3.99403 31481 ft 483 kts 57°
2026-04-21 21:46 39.78073 4.03169 31921 ft 482 kts 57°
2026-04-21 21:46 39.79770 4.06939 32313 ft 482 kts 57°
2026-04-21 21:47 39.81465 4.10709 32708 ft 482 kts 57°
2026-04-21 21:47 39.83155 4.14473 33132 ft 481 kts 57°
2026-04-21 21:47 39.84818 4.18181 33542 ft 480 kts 57°
2026-04-21 21:47 39.86499 4.21933 33932 ft 480 kts 57°
2026-04-21 21:48 39.88192 4.25707 33954 ft 485 kts 57°
2026-04-21 21:48 39.91597 4.33297 33961 ft 483 kts 57°
2026-04-21 21:49 39.94954 4.40799 33976 ft 477 kts 58°
2026-04-21 21:49 39.98263 4.48215 33963 ft 474 kts 58°
2026-04-21 21:50 40.01571 4.55647 33956 ft 472 kts 58°
2026-04-21 21:50 40.04863 4.63058 33955 ft 471 kts 58°
2026-04-21 21:51 40.08377 4.70163 33961 ft 467 kts 49°
2026-04-21 21:51 40.12574 4.76655 33959 ft 467 kts 46°
2026-04-21 21:52 40.16847 4.83083 33972 ft 468 kts 47°
2026-04-21 21:52 40.21046 4.89565 33959 ft 469 kts 47°
2026-04-21 21:53 40.25227 4.96143 33965 ft 470 kts 47°
2026-04-21 21:53 40.29402 5.02757 33958 ft 470 kts 47°
2026-04-21 21:54 40.33554 5.09344 33959 ft 471 kts 47°
2026-04-21 21:54 40.37729 5.15979 33965 ft 471 kts 47°
2026-04-21 21:55 40.41909 5.22631 33960 ft 472 kts 47°
2026-04-21 21:55 40.46055 5.29244 33959 ft 472 kts 47°
2026-04-21 21:56 40.50227 5.35913 33963 ft 472 kts 47°
2026-04-21 21:56 40.54398 5.42596 33962 ft 472 kts 47°
2026-04-21 21:57 40.58560 5.49277 33962 ft 472 kts 47°
2026-04-21 21:57 40.62728 5.55983 33961 ft 472 kts 47°
2026-04-21 21:58 40.66863 5.62652 33961 ft 472 kts 47°
2026-04-21 21:58 40.71022 5.69372 33962 ft 472 kts 47°
2026-04-21 21:59 40.74475 5.74963 33961 ft 473 kts 47°
2026-04-21 21:59 40.79300 5.82793 33971 ft 473 kts 47°
2026-04-21 22:00 40.82751 5.88406 33962 ft 473 kts 47°
2026-04-21 22:00 40.86900 5.95167 33965 ft 473 kts 47°
2026-04-21 22:01 40.91045 6.01937 33965 ft 473 kts 48°
2026-04-21 22:01 40.95161 6.08674 33961 ft 473 kts 48°
2026-04-21 22:02 40.99298 6.15461 33971 ft 473 kts 47°
2026-04-21 22:02 41.03431 6.22256 33951 ft 473 kts 47°
2026-04-21 22:03 41.07532 6.29014 33962 ft 472 kts 48°
2026-04-21 22:03 41.11647 6.35811 33965 ft 472 kts 48°
2026-04-21 22:04 41.15755 6.42610 33962 ft 471 kts 48°
2026-04-21 22:04 41.19853 6.49408 33968 ft 471 kts 47°
2026-04-21 22:05 41.23920 6.56168 33959 ft 470 kts 47°
2026-04-21 22:05 41.28052 6.62909 33956 ft 469 kts 46°
2026-04-21 22:06 41.32228 6.69586 33955 ft 468 kts 46°
2026-04-21 22:06 41.36370 6.76228 33958 ft 468 kts 46°
2026-04-21 22:07 41.40513 6.82912 33969 ft 467 kts 46°
2026-04-21 22:07 41.44646 6.89606 33961 ft 466 kts 46°
2026-04-21 22:08 41.48741 6.96254 33959 ft 465 kts 46°
2026-04-21 22:08 41.52853 7.02945 33964 ft 465 kts 46°
2026-04-21 22:09 41.56951 7.09625 33980 ft 464 kts 46°
2026-04-21 22:09 41.61025 7.16281 33969 ft 464 kts 46°
2026-04-21 22:10 41.65116 7.22980 33965 ft 465 kts 46°
2026-04-21 22:10 41.69203 7.29687 33965 ft 465 kts 46°
2026-04-21 22:11 41.73263 7.36365 33965 ft 465 kts 46°
2026-04-21 22:11 41.77349 7.43099 33965 ft 466 kts 46°
2026-04-21 22:12 41.81451 7.49877 33968 ft 468 kts 46°
2026-04-21 22:12 41.85565 7.56689 33967 ft 470 kts 46°
2026-04-21 22:13 41.89662 7.63488 33965 ft 472 kts 46°
2026-04-21 22:13 41.93795 7.70363 33966 ft 473 kts 46°
2026-04-21 22:14 41.97948 7.77287 33972 ft 476 kts 46°
2026-04-21 22:14 42.02085 7.84200 33974 ft 478 kts 46°
2026-04-21 22:15 42.06257 7.91189 33966 ft 479 kts 46°
2026-04-21 22:15 42.10436 7.98207 33974 ft 480 kts 46°
2026-04-21 22:16 42.14588 8.05196 33977 ft 480 kts 45°
2026-04-21 22:16 42.18772 8.12254 33967 ft 480 kts 45°
2026-04-21 22:17 42.22942 8.19305 33962 ft 480 kts 45°
2026-04-21 22:17 42.27073 8.26307 33964 ft 478 kts 45°
2026-04-21 22:18 42.31325 8.33192 33974 ft 471 kts 37°
2026-04-21 22:18 42.36523 8.38261 33967 ft 453 kts 20°
2026-04-21 22:19 42.42226 8.41497 33963 ft 445 kts 14°
2026-04-21 22:19 42.47988 8.44603 33965 ft 444 kts 15°
2026-04-21 22:20 42.53726 8.47755 33966 ft 444 kts 15°
2026-04-21 22:20 42.59410 8.50916 33966 ft 444 kts 15°
2026-04-21 22:21 42.65124 8.54108 33967 ft 444 kts 15°
2026-04-21 22:21 42.70856 8.57314 33987 ft 444 kts 15°
2026-04-21 22:22 42.76546 8.60503 33973 ft 445 kts 15°
2026-04-21 22:22 42.79416 8.62113 33695 ft 448 kts 15°
2026-04-21 22:22 42.82300 8.63733 33111 ft 446 kts 15°
2026-04-21 22:22 42.85154 8.65341 32485 ft 441 kts 15°
2026-04-21 22:23 42.87989 8.66939 31803 ft 439 kts 15°
2026-04-21 22:23 42.90806 8.68525 31205 ft 435 kts 15°
2026-04-21 22:23 42.93583 8.70095 30567 ft 430 kts 15°
2026-04-21 22:23 42.96359 8.71660 29863 ft 435 kts 15°
2026-04-21 22:24 42.99204 8.73257 29049 ft 449 kts 15°
2026-04-21 22:24 43.02040 8.74858 28458 ft 441 kts 16°
2026-04-21 22:24 43.04856 8.76461 27881 ft 434 kts 16°
2026-04-21 22:24 43.07622 8.78036 27350 ft 426 kts 16°
2026-04-21 22:25 43.10334 8.79580 26839 ft 418 kts 15°
2026-04-21 22:25 43.13027 8.81109 26321 ft 421 kts 15°
2026-04-21 22:25 43.15784 8.82665 25802 ft 432 kts 16°
2026-04-21 22:25 43.18543 8.84233 25256 ft 425 kts 16°
2026-04-21 22:26 43.21221 8.85763 24738 ft 418 kts 16°
2026-04-21 22:26 43.23900 8.87294 24223 ft 413 kts 16°
2026-04-21 22:26 43.26539 8.88802 23708 ft 408 kts 16°
2026-04-21 22:26 43.29167 8.90301 23154 ft 411 kts 16°
2026-04-21 22:27 43.31828 8.91817 22565 ft 413 kts 16°
2026-04-21 22:27 43.34460 8.93325 22019 ft 407 kts 16°
2026-04-21 22:27 43.37024 8.94741 21507 ft 397 kts 12°
2026-04-21 22:27 43.39674 8.95643 20997 ft 386 kts
2026-04-21 22:28 43.42311 8.95939 20464 ft 375 kts 354°
2026-04-21 22:28 43.44932 8.95915 19976 ft 380 kts 354°
2026-04-21 22:28 43.47592 8.95876 19464 ft 382 kts 354°
2026-04-21 22:28 43.50238 8.95852 18970 ft 376 kts 354°
2026-04-21 22:29 43.52806 8.95841 18473 ft 371 kts 354°
2026-04-21 22:29 43.55379 8.95837 17936 ft 368 kts 354°
2026-04-21 22:29 43.57930 8.95835 17401 ft 364 kts 354°
2026-04-21 22:29 43.60464 8.95835 16898 ft 365 kts 354°
2026-04-21 22:30 43.63017 8.95843 16409 ft 368 kts 356°
2026-04-21 22:30 43.65543 8.96231 15917 ft 371 kts
2026-04-21 22:30 43.68042 8.96985 15453 ft 365 kts
2026-04-21 22:30 43.70517 8.97750 14973 ft 362 kts
2026-04-21 22:31 43.72977 8.98498 14500 ft 360 kts
2026-04-21 22:31 43.75430 8.99226 14034 ft 361 kts
2026-04-21 22:31 43.77895 8.99949 13536 ft 362 kts
2026-04-21 22:31 43.80352 9.00670 13025 ft 358 kts
2026-04-21 22:32 43.82791 9.01198 12519 ft 350 kts
2026-04-21 22:32 43.85200 9.01462 12207 ft 342 kts
2026-04-21 22:32 43.87541 9.01695 12078 ft 332 kts
2026-04-21 22:32 43.89822 9.01949 11928 ft 324 kts
2026-04-21 22:33 43.92033 9.02212 11769 ft 313 kts
2026-04-21 22:33 43.94088 9.02947 11628 ft 310 kts 23°
2026-04-21 22:33 43.95829 9.04676 11528 ft 308 kts 41°
2026-04-21 22:33 43.97231 9.06910 11403 ft 302 kts 47°
2026-04-21 22:34 43.98542 9.09148 11279 ft 294 kts 46°
2026-04-21 22:34 43.99824 9.11309 11154 ft 286 kts 46°
2026-04-21 22:34 44.01083 9.13404 11027 ft 278 kts 46°
2026-04-21 22:34 44.02303 9.15445 10853 ft 274 kts 47°
2026-04-21 22:35 44.03452 9.17527 10631 ft 275 kts 49°
2026-04-21 22:35 44.04609 9.19668 10401 ft 277 kts 49°
2026-04-21 22:35 44.05768 9.21804 10174 ft 276 kts 49°
2026-04-21 22:35 44.06925 9.23930 9918 ft 274 kts 49°
2026-04-21 22:36 44.09196 9.28091 9374 ft 263 kts 50°
2026-04-21 22:36 44.10272 9.30055 9120 ft 255 kts 50°
2026-04-21 22:36 44.11346 9.32013 8887 ft 253 kts 50°
2026-04-21 22:37 44.12410 9.33955 8658 ft 251 kts 50°
2026-04-21 22:37 44.13520 9.35808 8408 ft 247 kts 37°
2026-04-21 22:37 44.15036 9.36763 8180 ft 237 kts
2026-04-21 22:37 44.16642 9.36539 7981 ft 230 kts 339°
2026-04-21 22:38 44.18038 9.35492 7769 ft 227 kts 323°
2026-04-21 22:38 44.19301 9.34168 7544 ft 227 kts 321°
2026-04-21 22:38 44.20556 9.32819 7338 ft 228 kts 321°
2026-04-21 22:38 44.21797 9.31483 7123 ft 228 kts 321°
2026-04-21 22:39 44.23055 9.30134 6909 ft 228 kts 322°
2026-04-21 22:39 44.24320 9.28788 6693 ft 229 kts 322°
2026-04-21 22:39 44.25590 9.27440 6475 ft 229 kts 322°
2026-04-21 22:39 44.26861 9.26094 6258 ft 229 kts 323°
2026-04-21 22:40 44.28132 9.24747 6009 ft 230 kts 323°
2026-04-21 22:40 44.29414 9.23391 5734 ft 232 kts 323°
2026-04-21 22:40 44.30704 9.22026 5451 ft 233 kts 323°
2026-04-21 22:40 44.31995 9.20660 5180 ft 233 kts 323°
2026-04-21 22:41 44.33265 9.19289 4902 ft 234 kts 317°
2026-04-21 22:41 44.34099 9.17358 4617 ft 234 kts 284°
2026-04-21 22:41 44.34488 9.15184 4522 ft 230 kts 286°
2026-04-21 22:41 44.34961 9.13030 4217 ft 234 kts 287°
2026-04-21 22:42 44.35442 9.10863 3911 ft 232 kts 287°
2026-04-21 22:42 44.35908 9.08727 3584 ft 227 kts 287°
2026-04-21 22:42 44.36358 9.06646 3271 ft 220 kts 287°
2026-04-21 22:42 44.36788 9.04658 2952 ft 211 kts 287°
2026-04-21 22:43 44.37199 9.02761 2667 ft 196 kts 287°
2026-04-21 22:43 44.37580 9.01002 2398 ft 182 kts 287°
2026-04-21 22:43 44.37931 8.99387 2164 ft 164 kts 287°
2026-04-21 22:43 44.38255 8.97908 1918 ft 156 kts 288°
2026-04-21 22:44 44.38568 8.96467 1725 ft 157 kts 287°
2026-04-21 22:44 44.38894 8.94987 1476 ft 160 kts 288°
2026-04-21 22:44 44.39232 8.93493 1220 ft 162 kts 288°
2026-04-21 22:44 44.39613 8.92001 941 ft 163 kts 289°
2026-04-21 22:45 44.39951 8.90509 716 ft 158 kts 286°
2026-04-21 22:45 44.40242 8.89046 538 ft 153 kts 285°
2026-04-21 22:45 44.40524 8.87613 335 ft 153 kts 284°
2026-04-21 22:45 44.40799 8.86181 124 ft 157 kts 285°
2026-04-21 22:46 44.41083 8.84744 26 ft 144 kts 285°
2026-04-21 22:46 44.41317 8.83559 21 ft 105 kts 285°
2026-04-21 22:46 44.41469 8.82783 19 ft 58 kts 285°
2026-04-21 22:46 44.41547 8.82483 16 ft 19 kts 347°
2026-04-21 22:47 44.41659 8.82541 20 ft 16 kts 57°
2026-04-21 22:47 44.41642 8.82688 20 ft 15 kts 105°
2026-04-21 22:47 44.41623 8.82782 19 ft 15 kts 105°
2026-04-21 22:47 44.41596 8.82919 19 ft 14 kts 105°
2026-04-21 22:48 44.41563 8.83093 19 ft 13 kts 105°
2026-04-21 22:48 44.41546 8.83175 19 ft 13 kts 106°
2026-04-21 22:48 44.41523 8.83296 19 ft 13 kts 105°
2026-04-21 22:48 44.41499 8.83416 22 ft 13 kts 105°
2026-04-21 22:49 44.41474 8.83545 19 ft 14 kts 105°
2026-04-21 22:49 44.41446 8.83684 19 ft 15 kts 105°
2026-04-21 22:49 44.41418 8.83832 19 ft 16 kts 105°
2026-04-21 22:49 44.41387 8.83986 19 ft 17 kts 105°
2026-04-21 22:50 44.41355 8.84149 20 ft 18 kts 105°
2026-04-21 22:50 44.41321 8.84325 19 ft 19 kts 105°
2026-04-21 22:50 44.41353 8.84475 19 ft 17 kts 52°
2026-04-21 22:50 44.41422 8.84601 19 ft 16 kts 53°
2026-04-21 22:51 44.41456 8.84664 19 ft 0 kts 53°
2026-04-21 22:51 44.41463 8.84676 19 ft 4 kts 52°
2026-04-21 22:51 44.41502 8.84748 19 ft 13 kts 53°
2026-04-21 22:51 44.41554 8.84846 19 ft 9 kts 65°
2026-04-21 22:52 44.41545 8.84923 19 ft 7 kts 105°
2026-04-21 22:52 44.41540 8.84949 21 ft 1 kts 105°
2026-04-21 22:52 44.41539 8.84954 21 ft 0 kts 105°